User: anonymous   Login
Location: Mat�lon
(46.2791°N, 7.1028°E)
Time: 07:42:46
(UTC+00:00)
Language:

In-Cosmos 22 - Orbit

View from above orbital plane
View from above orbital plane
View from above satellite
View from above satellite

Ground track
Ground track

The orbit data is extracted from the following two-line orbital elements,

1 12645U 81075A   20336.91726249  .00000072  00000-0  28416-4 0  9997
2 12645  81.2198  50.6714 0062701 251.7742 107.6603 14.18380250 33221
Epoch (UTC): 01 December 2020 22:00:51
Eccentricity: 0.0062701
inclination: 81.2198°
perigee height: 785 km
apogee height: 876 km
right ascension of ascending node: 50.6714°
argument of perigee: 251.7742°
revolutions per day: 14.18380250
mean anomaly at epoch: 107.6603°
orbit number at epoch: 3322

The dashed part of the orbit path shows where the satellite is in the earth's shadow,  

DLR